EW6241 Weather Reports


Display with metric or nautical units.
time (UTC)temp
F
wind
direction
speed
MPH
gust
MPH
rain 1hr
in
rain 24hr
in
rain mn
in
humidity
%
barometer
mb
20181017112806 47 63 0.0 8.0 0.00 0.00 0.00 95 1022.4
20181017111806 47 343 0.0 8.0 0.00 0.00 0.00 95 1022.5
20181017110806 47 298 0.0 8.0 0.00 0.00 0.00 95 1022.4
20181017105806 47 11 0.0 9.0 0.00 0.00 0.00 95 1022.3
20181017104806 47 5 0.0 4.0 0.00 0.00 0.00 96 1022.2
20181017103806 47 338 0.0 12.0 0.00 0.00 0.00 96 1022.1
20181017102806 47 39 2.0 8.0 0.00 0.00 0.00 96 1022.3
20181017101806 47 347 0.0 5.0 0.00 0.00 0.00 96 1022.4
20181017100806 47 336 4.0 10.0 0.00 0.00 0.00 96 1022.1
20181017095806 47 350 0.0 4.0 0.00 0.00 0.00 96 1022.1
20181017094806 47 25 3.0 7.0 0.00 0.00 0.00 96 1022.2
20181017093806 47 350 0.0 5.0 0.00 0.00 0.00 96 1022.3
20181017092806 47 339 1.0 8.0 0.00 0.00 0.00 96 1022.2
20181017091806 47 360 0.0 8.0 0.00 0.00 0.00 96 1022.1
20181017090806 47 5 1.0 5.0 0.00 0.00 0.00 96 1022.2
20181017085806 47 331 1.0 5.0 0.00 0.00 0.00 96 1022.4
20181017084806 48 299 0.0 2.0 0.00 0.00 0.00 96 1022.1
20181017083806 48 321 0.0 8.0 0.00 0.00 0.00 96 1022.2
20181017082806 48 340 0.0 6.0 0.00 0.00 0.00 96 1022.0
20181017081806 48 348 0.0 6.0 0.00 0.00 0.00 96 1022.1
20181017080806 48 360 0.0 9.0 0.00 0.00 0.00 96 1022.0
20181017075806 48 340 4.0 8.0 0.00 0.00 0.00 96 1021.9
20181017074807 48 355 3.0 8.0 0.00 0.00 0.00 96 1022.0
20181017073806 48 117 0.0 9.0 0.00 0.00 0.00 96 1022.2
20181017072806 48 16 0.0 8.0 0.00 0.00 0.00 96 1022.3
20181017071807 48 355 0.0 4.0 0.00 0.00 0.00 96 1022.4
20181017070806 48 304 2.0 8.0 0.00 0.00 0.00 96 1022.3
20181017065807 48 325 3.0 8.0 0.00 0.00 0.00 96 1022.2
20181017064806 48 19 0.0 2.0 0.00 0.00 0.00 96 1022.2
20181017063807 48 290 0.0 8.0 0.00 0.00 0.00 96 1022.3
20181017062807 48 355 0.0 4.0 0.00 0.00 0.00 96 1022.4
20181017061806 48 30 0.0 0.0 0.00 0.00 0.00 96 1022.5
20181017060807 48 335 0.0 0.0 0.00 0.00 0.00 96 1022.8
20181017055808 49 346 0.0 0.0 0.00 0.00 0.00 96 1022.8
20181017054807 48 16 0.0 1.0 0.00 0.00 0.00 96 1022.8
20181017053807 48 5 0.0 3.0 0.00 0.00 0.00 96 1022.7
20181017052807 48 15 0.0 2.0 0.00 0.00 0.00 96 1022.8
20181017051807 48 17 0.0 3.0 0.00 0.00 0.00 96 1023.1
20181017050807 48 56 0.0 1.0 0.00 0.00 0.00 96 1023.0
20181017045807 48 351 0.0 1.0 0.00 0.00 0.23 96 1023.0
20181017044807 48 36 0.0 0.0 0.00 0.00 0.23 96 1023.0
20181017043808 48 20 0.0 6.0 0.00 0.00 0.23 96 1022.8
20181017042807 48 20 0.0 5.0 0.00 0.00 0.23 96 1022.7
20181017041807 48 9 0.0 3.0 0.00 0.00 0.23 96 1022.6
20181017040807 48 5 0.0 5.0 0.00 0.00 0.23 96 1022.6
20181017035807 48 5 1.0 7.0 0.00 0.00 0.23 96 1022.7
20181017034807 48 44 0.0 4.0 0.00 0.00 0.23 96 1022.4
20181017033807 48 65 0.0 3.0 0.00 0.00 0.23 96 1022.8
20181017032807 48 331 5.0 5.0 0.00 0.00 0.23 96 1022.6
20181017031807 48 28 0.0 2.0 0.00 0.00 0.23 96 1022.5
20181017030807 48 360 0.0 1.0 0.00 0.00 0.23 96 1022.7
20181017025809 48 57 0.0 4.0 0.00 0.00 0.23 96 1022.6
20181017024807 48 14 0.0 7.0 0.00 0.00 0.23 96 1022.4
20181017023807 48 295 0.0 5.0 0.00 0.00 0.23 96 1022.5
20181017022807 48 270 0.0 3.0 0.00 0.00 0.23 96 1022.2
20181017021807 48 27 0.0 5.0 0.00 0.00 0.23 96 1022.0
20181017020807 48 350 0.0 6.0 0.00 0.00 0.23 96 1022.0
20181017015807 48 9 0.0 8.0 0.00 0.00 0.23 96 1021.8
20181017014807 48 323 0.0 5.0 0.00 0.00 0.23 96 1021.9
20181017013807 48 9 0.0 5.0 0.00 0.00 0.23 96 1021.9
20181017012808 48 15 0.0 8.0 0.00 0.00 0.23 96 1021.9
20181017011807 48 335 0.0 8.0 0.00 0.00 0.23 96 1021.6
20181017010807 48 355 0.0 9.0 0.00 0.00 0.23 96 1021.6
20181017005807 48 5 0.0 9.0 0.00 0.00 0.23 96 1021.5
20181017004808 48 28 2.0 8.0 0.00 0.00 0.23 96 1021.5
20181017003807 48 345 3.0 7.0 0.00 0.00 0.23 96 1021.4
20181017002807 48 283 6.0 6.0 0.00 0.00 0.23 96 1021.3
20181017001807 48 10 0.0 6.0 0.00 0.00 0.23 96 1021.1
20181017000808 48 360 2.0 9.0 0.00 0.00 0.23 96 1020.9
20181016235808 48 22 0.0 6.0 0.00 0.00 0.23 96 1020.7
20181016234808 48 5 1.0 8.0 0.00 0.00 0.23 96 1020.8
20181016233807 48 300 0.0 6.0 0.00 0.00 0.23 96 1020.6
20181016232808 48 306 2.0 6.0 0.00 0.00 0.23 96 1020.5
20181016231807 48 69 0.0 8.0 0.00 0.00 0.23 96 1020.5
20181016230808 48 9 0.0 10.0 0.00 0.00 0.23 96 1020.3
20181016225807 48 293 1.0 10.0 0.00 0.00 0.23 96 1020.2
20181016224807 48 26 0.0 10.0 0.00 0.00 0.23 95 1020.2
20181016223808 48 263 0.0 9.0 0.00 0.00 0.23 95 1020.4
20181016222808 48 49 0.0 6.0 0.00 0.00 0.23 95 1020.4
20181016221808 48 337 0.0 10.0 0.00 0.00 0.23 96 1020.3
20181016220808 48 17 1.0 9.0 0.00 0.00 0.23 95 1020.3
20181016215808 49 22 5.0 9.0 0.00 0.00 0.23 96 1020.2
20181016214808 48 302 2.0 10.0 0.00 0.00 0.23 96 1020.3
20181016213808 48 274 0.0 6.0 0.00 0.00 0.23 95 1020.3
20181016212808 48 21 0.0 4.0 0.00 0.00 0.23 95 1020.4
20181016211808 48 360 1.0 7.0 0.00 0.00 0.23 96 1020.4
20181016210808 48 312 0.0 4.0 0.00 0.00 0.23 96 1020.1
20181016205808 48 13 2.0 5.0 0.00 0.00 0.23 96 1020.1
20181016204808 48 343 0.0 9.0 0.00 0.00 0.23 95 1020.1
20181016203808 48 337 0.0 8.0 0.00 0.00 0.23 96 1020.0
20181016202808 47 360 0.0 11.0 0.00 0.00 0.23 96 1019.9
20181016201808 47 296 0.0 5.0 0.00 0.00 0.23 96 1020.1
20181016200808 47 344 0.0 14.0 0.00 0.00 0.23 96 1019.9
20181016195808 47 5 3.0 9.0 0.00 0.00 0.23 96 1020.0
20181016194808 46 30 5.0 11.0 0.00 0.00 0.23 95 1020.1
20181016193808 46 342 0.0 11.0 0.00 0.00 0.23 95 1020.1
20181016192808 46 360 2.0 11.0 0.00 0.00 0.23 95 1020.3
20181016191808 46 340 0.0 8.0 0.00 0.00 0.23 96 1020.5
20181016190808 46 34 3.0 10.0 0.00 0.00 0.23 95 1020.7
20181016185808 46 9 0.0 11.0 0.00 0.00 0.23 95 1020.8
20181016184808 46 355 0.0 9.0 0.00 0.00 0.23 95 1021.0
20181016183808 46 325 0.0 12.0 0.00 0.00 0.23 95 1021.3
20181016182808 46 15 1.0 11.0 0.00 0.00 0.23 95 1021.6
20181016181808 46 344 0.0 11.0 0.00 0.00 0.23 95 1021.8
20181016180808 46 297 0.0 6.0 0.00 0.00 0.23 95 1021.9
20181016175808 46 10 0.0 9.0 0.00 0.00 0.23 95 1021.7
20181016174809 46 342 3.0 11.0 0.00 0.00 0.23 95 1021.9
20181016173808 46 234 3.0 12.0 0.00 0.00 0.23 95 1021.9
20181016172809 46 30 4.0 8.0 0.00 0.00 0.23 95 1021.8
20181016171808 46 349 1.0 11.0 0.00 0.00 0.23 95 1021.9
20181016170808 46 327 6.0 8.0 0.00 0.00 0.23 95 1022.0
20181016165809 46 341 0.0 6.0 0.00 0.00 0.23 95 1021.9
20181016164809 46 9 0.0 11.0 0.00 0.00 0.23 95 1022.0
20181016163809 46 316 5.0 8.0 0.00 0.00 0.23 95 1022.1
20181016162808 45 29 5.0 8.0 0.00 0.00 0.23 95 1022.2
20181016161808 46 336 4.0 10.0 0.00 0.00 0.23 95 1022.3
20181016160809 46 32 8.0 8.0 0.00 0.00 0.23 95 1022.0
20181016155808 46 317 1.0 10.0 0.00 0.00 0.23 95 1021.9
20181016154809 46 5 0.0 10.0 0.00 0.00 0.23 95 1021.9
20181016153809 45 317 0.0 9.0 0.00 0.00 0.23 95 1021.8
20181016152809 45 14 5.0 10.0 0.00 0.00 0.23 95 1021.5
20181016151809 45 32 0.0 13.0 0.00 0.00 0.22 95 1021.4
20181016150809 45 30 2.0 11.0 0.00 0.00 0.22 95 1021.5
20181016145809 45 23 0.0 8.0 0.00 0.00 0.22 95 1021.7
20181016144809 45 319 0.0 10.0 0.00 0.00 0.22 95 1021.7
20181016143809 45 5 1.0 10.0 0.00 0.00 0.22 95 1021.5
20181016142809 45 26 0.0 11.0 0.00 0.00 0.22 95 1021.4
20181016141809 45 59 0.0 11.0 0.00 0.00 0.22 95 1021.1
20181016140809 45 360 0.0 12.0 0.00 0.00 0.22 95 1020.9
20181016135809 43 340 1.0 11.0 0.00 0.00 0.22 100 1020.9
20181016134809 43 340 1.0 11.0 0.00 0.00 0.22 100 1020.8
20181016133809 43 340 1.0 11.0 0.00 0.00 0.22 100 1020.5
20181016132809 43 340 1.0 11.0 0.00 0.00 0.22 100 1020.6
20181016131809 43 340 1.0 11.0 0.00 0.00 0.22 100 1020.6
20181016130809 44 28 1.0 14.0 0.00 0.00 0.22 95 1020.6
20181016125809 44 355 0.0 12.0 0.00 0.00 0.22 95 1020.6
20181016124810 44 325 2.0 13.0 0.00 0.00 0.22 95 1020.6
20181016123809 44 21 0.0 13.0 0.00 0.00 0.22 95 1020.6
20181016122809 44 355 10.0 14.0 0.00 0.00 0.22 96 1020.7
20181016121809 44 26 1.0 14.0 0.00 0.00 0.22 96 1020.7
20181016120810 44 34 0.0 11.0 0.00 0.00 0.22 96 1020.6
20181016115809 44 329 3.0 11.0 0.00 0.00 0.22 96 1020.6
20181016114809 44 334 12.0 12.0 0.00 0.00 0.22 96 1020.7
20181016113809 44 317 5.0 13.0 0.00 0.00 0.22 96 1020.7